SCP
0 0 2 0 0 1 0 0 1 0 1 2 1 -0 1 2 2 2 2 3 3 2 1 0 0 0 0 0 0 0 0 0 0 0 0 0 -0 -0 0 0 0 0 -0
0 0 2 1 0 0 0 0 0 0 0 0 0 1 2 1 2 2 3 2 2 1 1 0 0 0 0 0 0 0 0 0 0 0 0 0 0 0 0 0 0 0 0
0 0 2 2 0 0 0 0 0 0 0 -0 -0 0 2 2 3 3 2 2 2 1 0 0 0 0 0 0 0 0 0 0 0 0 0 0 0 0 0 -0 0 0 0
0 0 0 1 0 0 0 0 0 0 0 0 0 1 2 2 2 2 2 1 1 1 0 0 0 0 0 0 0 0 0 0 0 0 0 0 0 0 0 0 0 0 0
0 0 0 1 0 0 0 0 0 0 1 1 1 2 1 2 2 1 0 0 0 0 0 0 0 0 0 0 0 0 0 0 0 0 0 0 0 0 0 0 0 0 0
0 0 0 1 0 0 0 0 0 0 0 0 1 1 1 1 1 0 0 0 0 0 0 0 0 0 0 0 0 0 0 0 0 0 0 0 0 0 0 0 0 0 0
0 0 0 2 5 2 0 0 0 0 1 2 2 1 1 1 0 0 0 0 0 0 0 0 0 0 0 0 0 0 0 0 0 0 0 0 0 0 0 0 0 0 0
0 0 0 1 8 5 2 3 3 3 2 2 2 2 1 0 0 0 0 0 0 0 0 0 0 0 0 0 0 0 0 0 0 0 0 0 0 0 0 0 0 0 0
0 0 0 0 11 9 5 3 2 2 2 1 1 1 0 0 0 0 0 0 0 0 0 0 0 0 0 0 0 0 0 0 0 0 0 0 0 0 0 0 0 0 0
0 0 4 11 12 6 4 2 2 2 2 1 0 0 0 0 0 0 0 0 0 0 0 0 0 0 0 0 0 0 0 0 0 0 0 0 0 0 0 0 0 0 0
6 6 7 7 7 6 4 1 1 0 0 0 0 0 0 0 0 0 0 0 0 0 0 0 0 0 0 0 0 0 0 0 0 0 0 0 0 0 0 0 0 0 0
5 5 5 5 5 3 1 1 0 0 0 0 0 0 0 0 0 0 0 0 0 0 0 0 0 0 0 0 0 0 0 0 0 0 0 0 0 0 0 0 0 0 0
4 3 3 4 3 2 1 0 0 0 0 0 0 0 0 0 0 0 0 0 0 0 0 0 0 0 0 0 0 0 0 0 0 0 0 0 0 0 0 0 0 0 0
5 4 3 3 2 1 0 0 0 0 0 0 0 0 0 0 0 0 0 0 0 0 0 0 0 0 0 0 0 0 0 0 0 0 0 0 0 0 0 0 0 0 0
3 2 2 1 0 0 0 0 0 0 0 0 0 0 0 0 0 0 0 0 0 0 0 0 0 0 0 0 0 0 0 0 0 0 0 0 0 0 0 0 0 0 0
2 1 0 0 0 0 0 0 0 0 0 0 0 0 0 0 0 0 0 0 0 0 0 0 0 0 0 0 0 0 0 0 0 0 0 0 0 0 0 0 0 0 0
0 0 0 0 0 0 0 0 0 0 0 0 0 0 0 0 0 0 0 0 0 0 0 0 0 0 0 0 0 0 0 0 0 0 0 0 0 0 0 0 0 0 0
0 0 0 0 0 0 0 0 0 0 0 0 0 0 0 0 0 0 0 0 0 0 0 0 0 0 0 0 0 0 0 0 0 0 0 0 0 0 0 0 0 0 0
0 0 0 0 0 0 0 0 0 0 0 0 0 0 0 0 0 0 0 0 0 0 0 0 0 0 0 0 0 0 0 0 0 0 0 0 0 0 0 0 0 0 0
0 0 0 0 0 0 0 0 0 0 0 0 0 0 0 0 0 0 0 0 0 0 0 0 0 0 0 0 0 0 0 0 0 0 0 0 0 0 0 0 0 0 0
0 0 0 0 0 0 0 0 0 0 0 0 0 0 0 0 0 0 0 0 0 0 0 0 0 0 0 0 0 0 0 0 0 0 0 0 0 0 0 0 0 0 -0
0 0 0 0 0 0 0 0 0 0 0 0 0 0 0 0 0 0 0 0 0 0 0 0 0 0 0 0 0 0 0 0 0 0 0 0 0 0 0 0 0 0 0
0 0 0 0 0 0 0 0 0 0 0 0 0 0 0 0 0 0 0 0 0 0 0 0 0 0 0 0 0 0 0 0 0 0 0 0 0 0 0 0 0 0 -0
0 0 0 0 0 0 0 0 0 0 0 0 0 0 0 0 0 0 0 0 0 0 0 0 0 0 0 0 0 0 0 0 0 0 0 0 0 0 0 0 -0 0 -0
0 0 0 0 0 0 0 0 0 0 0 0 0 0 0 0 0 0 0 0 0 0 0 0 0 0 0 0 0 0 0 0 0 0 0 0 0 0 0 0 -0 -0 -0
0 0 0 0 0 0 0 0 0 0 0 0 0 0 0 0 0 -0 0 0 -0 -0 0 -0 0 0 0 0 0 0 0 0 0 0 0 0 0 0 -0 -0 -0 -0 0
Wind_Speed_500mb
72 75 61 46 61 82 74 78 61 77 61 54 67 59 48 37 42 37 41 42 38 36 32 27 32 35 28 19 18 19 21 26 27 12 7 11 5 7 13 25 34 27 31
83 63 61 59 77 75 69 55 54 63 67 57 73 62 51 41 39 42 41 37 34 35 34 32 26 22 12 10 16 17 24 12 12 8 17 12 11 17 21 4 15 22 19
88 78 66 74 83 72 66 63 43 60 65 87 69 54 50 44 45 43 42 42 41 41 34 23 15 9 5 11 15 18 7 12 1 10 12 10 8 40 38 36 37 30 37
85 92 74 85 84 64 57 53 50 76 69 73 59 65 66 55 48 47 44 42 35 31 31 20 17 17 12 9 13 18 16 8 8 13 20 23 22 16 39 52 54 46 53
89 87 85 85 77 67 72 61 66 79 74 56 60 62 61 60 56 50 44 34 30 29 26 22 23 22 26 21 10 9 12 15 22 20 18 20 23 26 30 53 62 63 57
80 89 87 76 78 75 66 72 62 74 77 71 68 64 70 65 57 49 43 37 30 20 22 23 21 21 19 15 13 20 18 15 15 18 21 23 26 31 25 42 55 57 66
62 86 89 90 84 85 77 79 65 59 70 68 64 62 63 54 48 51 44 35 25 27 31 24 24 24 17 14 9 8 10 15 12 15 20 20 22 26 28 36 50 56 67
71 80 87 104 91 95 96 86 88 69 68 63 58 63 58 52 51 45 39 30 31 39 33 28 17 7 5 5 3 5 7 17 22 26 25 27 27 28 30 37 46 57 56
65 79 86 104 102 103 98 91 76 65 62 57 57 57 55 51 55 49 37 32 34 29 22 14 9 9 5 4 3 4 3 13 23 26 18 23 25 34 32 37 43 47 45
62 76 94 98 108 105 97 86 77 74 65 63 64 61 56 57 48 39 44 35 29 25 21 14 12 7 1 4 5 5 8 10 10 14 21 28 32 36 42 34 37 44 48
84 92 95 106 107 104 98 87 76 69 66 58 52 52 49 47 51 44 34 30 26 22 19 17 13 8 1 8 14 7 9 11 17 23 27 33 34 37 38 39 43 42 41
97 97 100 101 100 95 87 83 78 68 57 52 51 48 47 48 44 39 37 32 28 25 23 17 11 6 7 12 15 16 18 24 32 37 36 32 32 39 38 39 42 43 46
90 96 97 95 92 89 86 85 77 69 57 49 50 53 53 51 50 45 37 30 23 20 15 12 9 5 10 14 19 23 29 34 35 39 37 34 33 38 37 39 45 50 51
94 89 87 87 91 90 89 81 73 63 55 54 56 55 52 48 45 42 35 30 24 20 13 8 6 9 13 18 26 34 39 37 37 31 20 23 29 38 39 42 46 47 48
91 94 92 89 86 92 88 81 76 67 60 60 57 54 53 50 46 44 39 31 25 17 11 7 10 14 19 25 31 32 34 31 26 16 16 24 34 39 42 44 47 40 30
91 92 91 95 91 92 88 84 77 70 65 64 62 56 53 47 39 35 32 24 17 14 11 12 14 17 19 22 30 33 31 28 26 24 24 26 35 39 43 38 28 17 27
92 93 90 88 87 92 94 89 78 69 66 60 53 49 45 39 33 28 22 17 13 10 6 3 10 17 25 26 29 32 30 26 29 28 30 29 36 40 35 32 22 16 20
99 94 95 99 100 96 90 84 76 70 64 61 54 44 37 31 24 19 18 17 13 10 11 11 18 23 29 31 29 28 27 27 26 25 20 24 26 30 34 27 25 25 29
103 114 109 104 97 92 86 84 77 72 68 60 48 37 29 25 22 23 23 21 15 11 15 16 22 27 32 28 27 26 23 25 18 14 15 20 25 26 27 30 30 34 37
110 117 110 100 93 84 78 75 69 62 57 50 42 30 24 23 24 24 23 27 28 30 28 32 31 34 38 40 39 30 26 25 18 14 20 23 26 30 34 33 41 46 49
101 99 96 89 79 70 70 71 63 54 47 39 35 33 34 39 40 39 33 25 31 31 29 30 28 28 37 44 41 29 24 25 24 26 27 26 28 28 31 33 39 44 52
86 84 85 76 67 63 62 60 57 49 44 44 44 44 40 34 25 22 23 27 32 31 27 25 13 20 35 35 29 27 26 25 27 29 31 30 28 26 28 36 41 44 48
82 77 74 66 60 58 56 58 51 47 48 47 49 42 36 32 28 21 17 15 13 12 13 7 9 20 21 26 28 29 30 30 34 30 28 29 28 29 32 36 44 45 60
79 72 71 67 63 55 51 51 48 46 50 47 42 30 25 33 31 36 35 28 25 20 14 18 22 25 27 31 37 29 30 26 22 25 22 26 30 33 35 41 50 52 65
67 67 69 68 62 56 51 46 47 47 46 41 39 35 32 35 37 40 43 40 41 35 33 33 34 33 36 39 42 44 34 35 36 28 33 42 46 51 51 51 54 58 71
66 66 63 62 57 52 50 44 43 38 41 32 29 32 32 31 32 37 38 39 41 40 36 42 43 44 31 28 31 37 38 34 37 46 49 51 53 53 56 60 58 63 74
Wind_Direction_500mb
228 223 216 215 189 187 180 181 177 182 178 203 208 206 198 194 201 208 202 203 216 231 237 244 250 256 262 256 261 263 259 286 303 329 23 44 50 352 320 318 296 284 292
221 212 207 195 189 187 187 183 183 192 183 192 220 210 197 198 206 212 208 214 220 225 236 241 243 262 251 266 260 250 297 300 105 21 343 346 318 319 346 19 343 309 311
215 212 200 190 185 185 184 193 198 187 177 203 208 202 192 199 206 215 218 211 212 221 227 229 243 226 251 238 239 273 170 142 60 358 342 338 304 308 307 302 304 299 289
214 210 197 189 182 191 185 189 174 187 182 193 196 201 198 196 207 209 210 211 222 224 230 219 203 166 171 203 157 164 170 224 293 299 299 294 286 308 311 309 309 312 312
210 205 204 189 186 187 179 179 164 183 191 194 190 197 196 199 198 202 204 209 220 224 225 189 168 171 167 162 185 219 240 272 299 301 298 289 280 283 284 299 305 308 318
215 206 206 191 178 179 181 178 171 173 180 185 185 192 196 194 197 197 205 205 214 213 195 165 167 189 195 203 206 260 275 289 291 293 296 300 304 303 304 305 307 311 312
208 197 194 176 168 171 176 181 178 176 183 181 187 189 199 199 202 203 200 198 206 188 179 178 194 205 221 249 242 238 274 290 300 308 310 307 307 308 310 311 311 312 306
206 193 184 162 166 163 163 172 180 174 174 181 184 191 195 195 197 197 195 194 185 177 189 204 228 239 234 176 107 279 289 314 317 324 325 320 324 321 312 307 312 312 308
193 184 175 164 163 164 166 170 166 168 168 178 183 190 196 193 189 186 188 183 174 186 197 194 185 152 172 243 208 238 252 295 312 320 317 309 306 299 296 302 304 311 322
176 160 162 157 152 160 162 161 163 163 167 178 181 180 185 176 182 184 167 179 189 182 181 166 153 140 195 325 322 288 282 283 289 315 310 306 307 304 302 307 310 313 310
144 147 141 144 149 153 153 155 158 159 168 178 177 174 168 168 163 168 168 164 157 153 141 136 127 145 201 318 329 320 284 288 284 291 296 303 316 313 311 309 312 310 306
130 132 134 137 143 147 146 148 148 153 163 168 167 164 161 156 157 152 145 140 141 142 144 142 148 191 244 286 301 304 304 303 302 311 301 303 307 308 305 306 312 312 307
125 127 127 129 132 136 139 140 144 144 150 157 154 147 145 143 140 140 142 142 140 134 135 155 181 245 288 301 305 307 304 302 305 308 299 295 301 301 304 309 312 307 308
124 122 122 125 126 128 133 136 134 135 137 142 140 137 134 133 131 126 124 119 123 124 160 184 225 260 288 295 296 299 300 304 311 314 302 294 301 298 302 306 308 310 314
119 119 119 120 121 122 125 127 126 130 133 132 129 124 122 124 125 131 139 148 158 163 181 227 259 278 283 291 297 307 321 325 321 318 290 304 303 301 304 308 307 318 327
116 116 116 117 117 120 119 124 126 126 130 128 126 128 130 138 138 140 147 157 170 181 215 244 266 289 311 324 327 329 331 327 313 308 311 309 298 299 299 305 314 323 327
107 108 112 114 114 117 124 126 125 128 129 130 129 134 141 140 140 146 155 164 180 205 218 320 329 338 334 347 345 339 331 317 310 306 298 300 300 304 312 321 315 301 305
102 101 105 108 114 121 121 120 123 126 126 123 129 137 139 137 143 147 141 131 113 101 73 10 348 353 352 349 348 348 345 340 326 315 311 315 312 314 324 335 344 349 337
106 110 113 116 119 118 122 122 124 127 129 132 137 138 137 124 121 117 114 113 99 76 43 14 20 14 6 4 5 5 9 355 346 330 312 329 335 338 350 358 352 349 342
111 117 118 117 118 121 129 129 131 135 135 138 136 134 120 110 108 109 108 88 79 61 54 43 34 20 13 11 7 3 7 14 16 358 10 17 26 34 28 11 3 350 347
114 117 121 120 124 133 136 133 134 128 129 129 121 112 106 99 94 98 100 93 81 62 51 47 42 14 5 360 355 354 359 22 37 48 44 33 30 32 30 18 4 355 345
115 117 118 120 128 134 134 128 122 126 125 119 103 95 101 100 103 94 105 102 102 95 91 75 74 0 357 355 10 19 19 38 44 44 40 37 31 26 26 19 1 356 0
113 114 117 118 121 124 124 118 120 125 124 117 109 110 106 87 76 83 104 143 125 139 138 131 336 346 20 33 43 53 52 58 55 49 41 33 27 27 32 18 5 10 7
113 118 121 120 119 120 118 118 121 118 118 113 109 110 78 69 71 73 76 82 82 85 86 73 56 49 49 53 51 56 57 54 48 37 45 39 34 34 26 23 12 15 8
120 122 119 117 118 120 117 114 112 107 101 99 98 97 87 68 70 76 73 70 71 71 72 64 59 56 53 49 48 44 45 41 40 37 42 35 31 25 22 19 13 12 8
119 119 118 116 114 113 109 110 116 117 117 120 113 98 87 83 75 68 74 67 62 60 67 69 64 59 62 63 56 46 48 49 42 39 38 31 26 24 16 13 11 10 8
Wind_Speed_850mb
72 75 61 46 61 82 74 78 61 77 61 54 67 59 48 37 42 37 41 42 38 36 32 27 32 35 28 19 18 19 21 26 27 12 7 11 5 7 13 25 34 27 31
83 63 61 59 77 75 69 55 54 63 67 57 73 62 51 41 39 42 41 37 34 35 34 32 26 22 12 10 16 17 24 12 12 8 17 12 11 17 21 4 15 22 19
88 78 66 74 83 72 66 63 43 60 65 87 69 54 50 44 45 43 42 42 41 41 34 23 15 9 5 11 15 18 7 12 1 10 12 10 8 40 38 36 37 30 37
85 92 74 85 84 64 57 53 50 76 69 73 59 65 66 55 48 47 44 42 35 31 31 20 17 17 12 9 13 18 16 8 8 13 20 23 22 16 39 52 54 46 53
89 87 85 85 77 67 72 61 66 79 74 56 60 62 61 60 56 50 44 34 30 29 26 22 23 22 26 21 10 9 12 15 22 20 18 20 23 26 30 53 62 63 57
80 89 87 76 78 75 66 72 62 74 77 71 68 64 70 65 57 49 43 37 30 20 22 23 21 21 19 15 13 20 18 15 15 18 21 23 26 31 25 42 55 57 66
62 86 89 90 84 85 77 79 65 59 70 68 64 62 63 54 48 51 44 35 25 27 31 24 24 24 17 14 9 8 10 15 12 15 20 20 22 26 28 36 50 56 67
71 80 87 104 91 95 96 86 88 69 68 63 58 63 58 52 51 45 39 30 31 39 33 28 17 7 5 5 3 5 7 17 22 26 25 27 27 28 30 37 46 57 56
65 79 86 104 102 103 98 91 76 65 62 57 57 57 55 51 55 49 37 32 34 29 22 14 9 9 5 4 3 4 3 13 23 26 18 23 25 34 32 37 43 47 45
62 76 94 98 108 105 97 86 77 74 65 63 64 61 56 57 48 39 44 35 29 25 21 14 12 7 1 4 5 5 8 10 10 14 21 28 32 36 42 34 37 44 48
84 92 95 106 107 104 98 87 76 69 66 58 52 52 49 47 51 44 34 30 26 22 19 17 13 8 1 8 14 7 9 11 17 23 27 33 34 37 38 39 43 42 41
97 97 100 101 100 95 87 83 78 68 57 52 51 48 47 48 44 39 37 32 28 25 23 17 11 6 7 12 15 16 18 24 32 37 36 32 32 39 38 39 42 43 46
90 96 97 95 92 89 86 85 77 69 57 49 50 53 53 51 50 45 37 30 23 20 15 12 9 5 10 14 19 23 29 34 35 39 37 34 33 38 37 39 45 50 51
94 89 87 87 91 90 89 81 73 63 55 54 56 55 52 48 45 42 35 30 24 20 13 8 6 9 13 18 26 34 39 37 37 31 20 23 29 38 39 42 46 47 48
91 94 92 89 86 92 88 81 76 67 60 60 57 54 53 50 46 44 39 31 25 17 11 7 10 14 19 25 31 32 34 31 26 16 16 24 34 39 42 44 47 40 30
91 92 91 95 91 92 88 84 77 70 65 64 62 56 53 47 39 35 32 24 17 14 11 12 14 17 19 22 30 33 31 28 26 24 24 26 35 39 43 38 28 17 27
92 93 90 88 87 92 94 89 78 69 66 60 53 49 45 39 33 28 22 17 13 10 6 3 10 17 25 26 29 32 30 26 29 28 30 29 36 40 35 32 22 16 20
99 94 95 99 100 96 90 84 76 70 64 61 54 44 37 31 24 19 18 17 13 10 11 11 18 23 29 31 29 28 27 27 26 25 20 24 26 30 34 27 25 25 29
103 114 109 104 97 92 86 84 77 72 68 60 48 37 29 25 22 23 23 21 15 11 15 16 22 27 32 28 27 26 23 25 18 14 15 20 25 26 27 30 30 34 37
110 117 110 100 93 84 78 75 69 62 57 50 42 30 24 23 24 24 23 27 28 30 28 32 31 34 38 40 39 30 26 25 18 14 20 23 26 30 34 33 41 46 49
101 99 96 89 79 70 70 71 63 54 47 39 35 33 34 39 40 39 33 25 31 31 29 30 28 28 37 44 41 29 24 25 24 26 27 26 28 28 31 33 39 44 52
86 84 85 76 67 63 62 60 57 49 44 44 44 44 40 34 25 22 23 27 32 31 27 25 13 20 35 35 29 27 26 25 27 29 31 30 28 26 28 36 41 44 48
82 77 74 66 60 58 56 58 51 47 48 47 49 42 36 32 28 21 17 15 13 12 13 7 9 20 21 26 28 29 30 30 34 30 28 29 28 29 32 36 44 45 60
79 72 71 67 63 55 51 51 48 46 50 47 42 30 25 33 31 36 35 28 25 20 14 18 22 25 27 31 37 29 30 26 22 25 22 26 30 33 35 41 50 52 65
67 67 69 68 62 56 51 46 47 47 46 41 39 35 32 35 37 40 43 40 41 35 33 33 34 33 36 39 42 44 34 35 36 28 33 42 46 51 51 51 54 58 71
66 66 63 62 57 52 50 44 43 38 41 32 29 32 32 31 32 37 38 39 41 40 36 42 43 44 31 28 31 37 38 34 37 46 49 51 53 53 56 60 58 63 74
Wind_Direction_850mb
228 223 216 215 189 187 180 181 177 182 178 203 208 206 198 194 201 208 202 203 216 231 237 244 250 256 262 256 261 263 259 286 303 329 23 44 50 352 320 318 296 284 292
221 212 207 195 189 187 187 183 183 192 183 192 220 210 197 198 206 212 208 214 220 225 236 241 243 262 251 266 260 250 297 300 105 21 343 346 318 319 346 19 343 309 311
215 212 200 190 185 185 184 193 198 187 177 203 208 202 192 199 206 215 218 211 212 221 227 229 243 226 251 238 239 273 170 142 60 358 342 338 304 308 307 302 304 299 289
214 210 197 189 182 191 185 189 174 187 182 193 196 201 198 196 207 209 210 211 222 224 230 219 203 166 171 203 157 164 170 224 293 299 299 294 286 308 311 309 309 312 312
210 205 204 189 186 187 179 179 164 183 191 194 190 197 196 199 198 202 204 209 220 224 225 189 168 171 167 162 185 219 240 272 299 301 298 289 280 283 284 299 305 308 318
215 206 206 191 178 179 181 178 171 173 180 185 185 192 196 194 197 197 205 205 214 213 195 165 167 189 195 203 206 260 275 289 291 293 296 300 304 303 304 305 307 311 312
208 197 194 176 168 171 176 181 178 176 183 181 187 189 199 199 202 203 200 198 206 188 179 178 194 205 221 249 242 238 274 290 300 308 310 307 307 308 310 311 311 312 306
206 193 184 162 166 163 163 172 180 174 174 181 184 191 195 195 197 197 195 194 185 177 189 204 228 239 234 176 107 279 289 314 317 324 325 320 324 321 312 307 312 312 308
193 184 175 164 163 164 166 170 166 168 168 178 183 190 196 193 189 186 188 183 174 186 197 194 185 152 172 243 208 238 252 295 312 320 317 309 306 299 296 302 304 311 322
176 160 162 157 152 160 162 161 163 163 167 178 181 180 185 176 182 184 167 179 189 182 181 166 153 140 195 325 322 288 282 283 289 315 310 306 307 304 302 307 310 313 310
144 147 141 144 149 153 153 155 158 159 168 178 177 174 168 168 163 168 168 164 157 153 141 136 127 145 201 318 329 320 284 288 284 291 296 303 316 313 311 309 312 310 306
130 132 134 137 143 147 146 148 148 153 163 168 167 164 161 156 157 152 145 140 141 142 144 142 148 191 244 286 301 304 304 303 302 311 301 303 307 308 305 306 312 312 307
125 127 127 129 132 136 139 140 144 144 150 157 154 147 145 143 140 140 142 142 140 134 135 155 181 245 288 301 305 307 304 302 305 308 299 295 301 301 304 309 312 307 308
124 122 122 125 126 128 133 136 134 135 137 142 140 137 134 133 131 126 124 119 123 124 160 184 225 260 288 295 296 299 300 304 311 314 302 294 301 298 302 306 308 310 314
119 119 119 120 121 122 125 127 126 130 133 132 129 124 122 124 125 131 139 148 158 163 181 227 259 278 283 291 297 307 321 325 321 318 290 304 303 301 304 308 307 318 327
116 116 116 117 117 120 119 124 126 126 130 128 126 128 130 138 138 140 147 157 170 181 215 244 266 289 311 324 327 329 331 327 313 308 311 309 298 299 299 305 314 323 327
107 108 112 114 114 117 124 126 125 128 129 130 129 134 141 140 140 146 155 164 180 205 218 320 329 338 334 347 345 339 331 317 310 306 298 300 300 304 312 321 315 301 305
102 101 105 108 114 121 121 120 123 126 126 123 129 137 139 137 143 147 141 131 113 101 73 10 348 353 352 349 348 348 345 340 326 315 311 315 312 314 324 335 344 349 337
106 110 113 116 119 118 122 122 124 127 129 132 137 138 137 124 121 117 114 113 99 76 43 14 20 14 6 4 5 5 9 355 346 330 312 329 335 338 350 358 352 349 342
111 117 118 117 118 121 129 129 131 135 135 138 136 134 120 110 108 109 108 88 79 61 54 43 34 20 13 11 7 3 7 14 16 358 10 17 26 34 28 11 3 350 347
114 117 121 120 124 133 136 133 134 128 129 129 121 112 106 99 94 98 100 93 81 62 51 47 42 14 5 360 355 354 359 22 37 48 44 33 30 32 30 18 4 355 345
115 117 118 120 128 134 134 128 122 126 125 119 103 95 101 100 103 94 105 102 102 95 91 75 74 0 357 355 10 19 19 38 44 44 40 37 31 26 26 19 1 356 0
113 114 117 118 121 124 124 118 120 125 124 117 109 110 106 87 76 83 104 143 125 139 138 131 336 346 20 33 43 53 52 58 55 49 41 33 27 27 32 18 5 10 7
113 118 121 120 119 120 118 118 121 118 118 113 109 110 78 69 71 73 76 82 82 85 86 73 56 49 49 53 51 56 57 54 48 37 45 39 34 34 26 23 12 15 8
120 122 119 117 118 120 117 114 112 107 101 99 98 97 87 68 70 76 73 70 71 71 72 64 59 56 53 49 48 44 45 41 40 37 42 35 31 25 22 19 13 12 8
119 119 118 116 114 113 109 110 116 117 117 120 113 98 87 83 75 68 74 67 62 60 67 69 64 59 62 63 56 46 48 49 42 39 38 31 26 24 16 13 11 10 8